Weather History for KHOP - March, 2013

Change the Weather History Date:

Sunday, March 17, 2013

  Actual Average Record
Temperature  
Mean Temperature 44 °F -  
Max Temperature 46 °F 57 °F 79 °F (2012)
Min Temperature 42 °F 36 °F 27 °F (2007)
Degree Days  
Heating Degree Days 21    
Moisture  
Dew Point 43 °F    
Average Humidity 99    
Maximum Humidity 100    
Minimum Humidity 87    
Precipitation  
Precipitation 0.24 in - - ()
Sea Level Pressure  
Sea Level Pressure 29.92 in    
Wind  
Wind Speed 11 mph (ENE)    
Max Wind Speed 17 mph    
Max Gust Speed 24 mph    
Visibility 8 miles    
Events Rain    
Averages and records for this station are not official NWS values.
T = Trace of Precipitation, MM = Missing Value Source: NWS Daily Summary

Daily Weather History Graph

Daily Weather History Graph

Search for Another Location

Airport or City:

Trip Planner

Search our weather history database for the weather conditions in past years. The results will help you decide how hot, cold, wet, or windy it might be!

Date:

Astronomy

Mar. 17, 2013 Rise Set
Actual Time 6:57 AM CDT 6:59 PM CDT
Civil Twilight 6:31 AM CDT 7:25 PM CDT
Nautical Twilight 6:01 AM CDT 7:55 PM CDT
Astronomical Twilight 5:31 AM CDT 8:25 PM CDT
Moon 10:18 AM CDT (3/17) No Moon Set
Length of Visible Light 12h 53m
Length of Day
12h 01m
Waxing Crescent, 31% of the Moon is Illuminated
Mar 17
Waxing Crescent
Mar 19
First Quarter
Mar 27
Full
Apr 2
Last Quarter
Apr 10
New

Hourly Weather History & Observations

Time (CDT) Temp. Windchill Dew Point Humidity Pressure Visibility Wind Dir Wind Speed Gust Speed Precip Events Conditions
12:55 AM 46.0 °F 43.9 °F 42.6 °F 88% 29.95 in 9.0 mi North 4.6 mph - N/A   Mostly Cloudy
1:55 AM 45.0 °F 41.2 °F 42.6 °F 91% 29.95 in 9.0 mi North 6.9 mph - N/A   Scattered Clouds
2:55 AM 45.9 °F 41.2 °F 42.3 °F 87% 29.94 in 10.0 mi North 9.2 mph - N/A   Overcast
3:55 AM 44.8 °F 39.4 °F 42.1 °F 90% 29.93 in 10.0 mi NNE 10.4 mph - N/A   Overcast
4:55 AM 42.6 °F 36.8 °F 42.4 °F 99% 29.96 in 7.0 mi North 10.4 mph - N/A   Scattered Clouds
5:00 AM 42.8 °F 37.5 °F 42.8 °F 100% 29.96 in 7.0 mi North 9.2 mph - N/A   Mostly Cloudy
5:55 AM 43.2 °F 36.6 °F 43.2 °F 100% 29.97 in 7.0 mi NNE 12.7 mph - N/A   Overcast
6:08 AM 42.8 °F 37.0 °F 42.8 °F 100% 29.97 in 7.0 mi NNE 10.4 mph - N/A   Overcast
6:55 AM 43.3 °F 37.7 °F 43.3 °F 100% 29.99 in 7.0 mi NNE 10.4 mph - N/A   Overcast
7:28 AM 42.8 °F 37.0 °F 42.8 °F 100% 29.99 in 7.0 mi NNE 10.4 mph - N/A   Overcast
7:38 AM 42.8 °F 37.5 °F 42.8 °F 100% 30.00 in 7.0 mi NNE 9.2 mph - N/A   Light Drizzle
7:55 AM 43.7 °F 38.6 °F 43.7 °F 100% 29.99 in 7.0 mi NE 9.2 mph - 0.00 in   Light Drizzle
8:04 AM 44.6 °F 39.7 °F 44.6 °F 100% 30.00 in 7.0 mi NNE 9.2 mph - N/A   Overcast
8:55 AM 44.4 °F 39.5 °F 44.4 °F 100% 30.00 in 8.0 mi NE 9.2 mph - 0.00 in   Overcast
9:55 AM 44.6 °F 38.8 °F 44.6 °F 100% 30.00 in 7.0 mi NE 11.5 mph - N/A   Overcast
10:55 AM 45.3 °F 39.3 °F 44.8 °F 98% 29.99 in 10.0 mi ENE 12.7 mph - N/A   Overcast
11:55 AM 45.9 °F 41.7 °F 44.6 °F 95% 29.98 in 10.0 mi ENE 8.1 mph - N/A   Overcast
11:57 AM 46.4 °F 42.4 °F 44.6 °F 93% 29.98 in 10.0 mi ENE 8.1 mph - N/A   Overcast
12:55 PM 46.0 °F 40.2 °F 45.5 °F 98% 30.01 in 6.0 mi NNE 12.7 mph - N/A   Overcast
12:58 PM 46.4 °F 40.7 °F 44.6 °F 93% 30.01 in 5.0 mi North 12.7 mph - N/A   Light Drizzle
1:02 PM 44.6 °F 38.4 °F 44.6 °F 100% 30.01 in 5.0 mi North 12.7 mph - N/A   Light Drizzle
1:09 PM 44.6 °F 38.8 °F 44.6 °F 100% 30.01 in 2.5 mi North 11.5 mph - N/A Rain Rain
1:12 PM 44.6 °F 39.2 °F 44.6 °F 100% 30.01 in 2.5 mi North 10.4 mph - N/A Rain Rain
1:17 PM 44.6 °F 37.8 °F 44.6 °F 100% 30.00 in 3.0 mi North 15.0 mph - N/A Rain Rain
1:55 PM 43.7 °F 36.9 °F 43.7 °F 100% 29.96 in 5.0 mi NE 13.8 mph - 0.04 in   Overcast
2:00 PM 42.8 °F 35.8 °F 42.8 °F 100% 29.95 in 4.0 mi NE 13.8 mph - N/A   Overcast
2:20 PM 42.8 °F 34.8 °F 42.8 °F 100% 29.95 in 5.0 mi NE 17.3 mph 24.2 mph N/A Rain Light Rain
2:42 PM 42.8 °F 34.8 °F 42.8 °F 100% 29.94 in 9.0 mi NE 17.3 mph - N/A   Drizzle
2:55 PM 42.8 °F 35.1 °F 42.8 °F 100% 29.92 in 6.0 mi ENE 16.1 mph - 0.05 in Rain Light Rain
3:03 PM 42.8 °F 36.2 °F 42.8 °F 100% 29.92 in 6.0 mi ENE 12.7 mph - N/A Rain Light Rain
3:08 PM 42.8 °F 35.8 °F 42.8 °F 100% 29.92 in 7.0 mi East 13.8 mph - N/A Rain Light Rain
3:18 PM 42.8 °F 35.8 °F 42.8 °F 100% 29.91 in 5.0 mi East 13.8 mph - N/A Rain Light Rain
3:19 PM 42.8 °F 35.4 °F 42.8 °F 100% 29.90 in 4.0 mi East 15.0 mph - N/A Rain Light Rain
3:23 PM 42.8 °F 35.8 °F 42.8 °F 100% 29.90 in 3.0 mi East 13.8 mph - N/A Rain Light Rain
3:27 PM 42.8 °F 35.8 °F 42.8 °F 100% 29.90 in 2.5 mi East 13.8 mph - N/A Rain Light Rain
3:30 PM 42.8 °F 34.8 °F 42.8 °F 100% 29.90 in 3.0 mi East 17.3 mph - N/A   Overcast
3:35 PM 42.8 °F 35.4 °F 42.8 °F 100% 29.90 in 4.0 mi East 15.0 mph - N/A   Overcast
3:44 PM 42.8 °F 36.2 °F 42.8 °F 100% 29.91 in 10.0 mi East 12.7 mph - N/A   Light Drizzle
3:48 PM 42.8 °F 36.2 °F 42.8 °F 100% 29.91 in 10.0 mi East 12.7 mph - N/A   Overcast
3:52 PM 42.8 °F 36.2 °F 42.8 °F 100% 29.91 in 10.0 mi East 12.7 mph - N/A   Light Drizzle
3:55 PM 42.6 °F 35.6 °F 42.6 °F 100% 29.91 in 10.0 mi East 13.8 mph - 0.06 in   Light Drizzle
3:58 PM 42.8 °F 37.0 °F 42.8 °F 100% 29.91 in 10.0 mi East 10.4 mph - N/A   Light Drizzle
4:05 PM 42.8 °F 37.5 °F 42.8 °F 100% 29.92 in 10.0 mi East 9.2 mph - N/A   Light Drizzle
4:08 PM 42.8 °F 37.0 °F 42.8 °F 100% 29.92 in 10.0 mi East 10.4 mph - N/A   Light Drizzle
4:10 PM 42.8 °F 36.2 °F 42.8 °F 100% 29.92 in 10.0 mi East 12.7 mph - N/A   Overcast
4:13 PM 42.8 °F 36.6 °F 42.8 °F 100% 29.92 in 10.0 mi East 11.5 mph - N/A   Light Drizzle
4:14 PM 42.8 °F 36.6 °F 42.8 °F 100% 29.92 in 10.0 mi East 11.5 mph - N/A   Light Drizzle
4:19 PM 42.8 °F 37.0 °F 42.8 °F 100% 29.92 in 7.0 mi East 10.4 mph - N/A   Drizzle
4:42 PM 42.8 °F 37.5 °F 42.8 °F 100% 29.90 in 7.0 mi ENE 9.2 mph - N/A Rain Light Rain
4:44 PM 42.8 °F 37.5 °F 42.8 °F 100% 29.90 in 8.0 mi East 9.2 mph - N/A Rain Light Rain
4:49 PM 42.8 °F 36.6 °F 42.8 °F 100% 29.89 in 10.0 mi East 11.5 mph - N/A   Light Drizzle
4:54 PM 42.8 °F 36.6 °F 42.8 °F 100% 29.89 in 10.0 mi East 11.5 mph - N/A   Light Drizzle
4:55 PM 43.2 °F 36.6 °F 43.2 °F 100% 29.89 in 9.0 mi East 12.7 mph - 0.06 in   Light Drizzle
5:06 PM 42.8 °F 36.2 °F 42.8 °F 100% 29.88 in 9.0 mi East 12.7 mph - N/A   Overcast
5:10 PM 42.8 °F 35.4 °F 42.8 °F 100% 29.87 in 10.0 mi East 15.0 mph - N/A   Light Drizzle
5:36 PM 42.8 °F 35.8 °F 42.8 °F 100% 29.86 in 10.0 mi East 13.8 mph - N/A   Light Drizzle
5:40 PM 42.8 °F 35.4 °F 42.8 °F 100% 29.86 in 10.0 mi East 15.0 mph - N/A   Mostly Cloudy
5:42 PM 42.8 °F 35.8 °F 42.8 °F 100% 29.86 in 10.0 mi East 13.8 mph - N/A   Light Drizzle
5:49 PM 42.8 °F 35.8 °F 42.8 °F 100% 29.85 in 10.0 mi East 13.8 mph - N/A   Light Drizzle
5:52 PM 42.8 °F 34.8 °F 42.8 °F 100% 29.84 in 10.0 mi ESE 17.3 mph - N/A   Mostly Cloudy
5:55 PM 43.0 °F 35.1 °F 43.0 °F 100% 29.83 in 10.0 mi ESE 17.3 mph 23.0 mph 0.03 in   Mostly Cloudy
6:55 PM 42.8 °F 36.6 °F 42.8 °F 100% 29.85 in 10.0 mi East 11.5 mph - N/A   Overcast
6:57 PM 42.8 °F 35.4 °F 42.8 °F 100% 29.84 in 10.0 mi East 15.0 mph - N/A   Overcast
7:47 PM 42.8 °F 36.6 °F 42.8 °F 100% 29.86 in 10.0 mi ENE 11.5 mph - N/A   Overcast
7:55 PM 42.6 °F 36.8 °F 42.6 °F 100% 29.86 in 10.0 mi East 10.4 mph - N/A   Overcast
8:55 PM 42.6 °F 35.9 °F 42.6 °F 100% 29.83 in 10.0 mi East 12.7 mph - N/A   Overcast
9:23 PM 42.8 °F 37.0 °F 42.8 °F 100% 29.83 in 10.0 mi East 10.4 mph - N/A   Overcast
9:55 PM 42.6 °F 35.9 °F 42.6 °F 100% 29.82 in 10.0 mi East 12.7 mph - N/A   Overcast
10:28 PM 42.8 °F 37.0 °F 42.8 °F 100% 29.82 in 10.0 mi ESE 10.4 mph - N/A   Overcast
10:55 PM 43.2 °F 37.9 °F 43.2 °F 100% 29.81 in 10.0 mi ESE 9.2 mph - N/A   Overcast
11:55 PM 44.1 °F 37.7 °F 44.1 °F 100% 29.76 in 10.0 mi ESE 12.7 mph - N/A   Overcast